Vertical_Velocity
-1 1 3 4 2 2 6 3 -3 -5 3 -1 -11 1 3 -8 -10 -10 3 -5 -6 1 -0 0 -1 1 -1 -0 1 0 -1 -4 0 -0 -2 -1 1 -0 4 0 -1 -1 -0 -2 2 -2 -1 0 2
-0 -0 2 2 -0 6 2 -0 1 -4 0 1 -7 10 -3 1 0 -1 -4 7 -3 -1 0 -4 -1 2 1 -2 -2 -2 -2 -1 -1 -2 -1 -1 0 3 2 0 2 -3 -1 -2 -3 -2 -2 1 0
-3 1 0 2 2 6 2 4 0 2 1 -3 5 14 -1 -4 24 11 7 2 -1 1 -1 -2 3 2 -1 -1 -2 -2 -1 -1 -2 -2 -0 -1 -0 2 0 0 0 -1 -1 -0 -1 -1 0 -1 0
-2 -0 -1 1 1 2 2 1 4 2 4 -4 -4 0 -1 -1 -0 8 0 4 -1 -3 -1 1 2 1 -1 -2 0 -0 -0 0 -2 -0 -2 -1 -0 2 -0 -1 3 1 -5 2 -2 -1 -3 0 -3
-2 -0 -1 -1 -1 -0 -1 -0 1 7 2 5 -3 5 2 -4 -0 -0 -3 -0 -1 0 2 1 -0 -3 -3 -2 -3 1 -0 0 -0 1 -0 0 0 2 3 0 -0 -0 -0 3 -0 1 -2 1 1
-3 1 0 -1 3 1 2 -0 1 2 2 -1 -1 -0 3 6 -3 0 -0 -2 10 3 5 -0 -3 2 1 -1 2 7 -1 1 -2 -1 -2 -0 1 2 -1 -1 0 -1 -3 2 2 -1 -2 2 2
-1 -0 0 0 5 3 -0 -1 2 2 0 2 -3 -6 1 -8 -4 -1 3 3 1 2 3 8 0 6 15 -11 6 13 0 -0 -0 -1 -0 1 4 -1 -2 -4 -1 5 3 -2 -2 3 -0 -1 -0
-1 -1 0 1 4 2 3 2 -1 -0 -3 -5 -3 0 -1 -3 -0 1 1 -1 7 -0 7 6 4 10 28 -3 7 10 2 -0 -1 0 4 6 1 1 -2 -1 -4 -3 3 4 2 -1 1 1 -1
2 1 2 2 2 1 1 -0 -1 2 0 -4 -1 4 -1 3 -1 2 -1 0 -2 -1 1 6 -4 -2 56 12 12 1 8 2 4 7 2 -0 1 -2 -4 -1 -1 -1 -2 1 -0 -1 -0 -3 -1
2 0 0 0 1 3 0 3 4 -1 3 -1 2 3 -1 0 -2 -4 -6 1 -2 2 3 26 14 46 -0 6 9 1 5 12 6 2 -0 0 -1 -0 1 -0 -0 1 -2 -1 -1 0 1 -2 -3
-3 -0 2 -3 -2 1 -3 2 -2 -4 5 4 3 2 2 1 1 -1 -1 2 -3 2 5 1 2 1 4 21 19 20 18 5 1 -5 -4 -4 0 1 1 1 -2 -0 -1 -2 -1 -0 0 0 -0
1 0 -3 -4 -2 0 -1 0 -0 -4 -2 0 -4 2 2 -1 -2 -3 1 2 -5 0 1 -0 -5 19 26 30 11 11 11 0 -1 3 -2 -3 2 1 -0 0 0 -1 2 -2 1 -1 -3 -2 -2
-0 -1 -4 -1 -0 -1 -0 -1 -1 -4 0 -1 -7 -1 1 -0 -3 -4 -3 -1 3 -2 2 4 1 0 6 5 4 -5 -1 -3 2 -7 5 -0 -1 -0 -1 -4 2 0 -2 -2 -1 -1 -1 -5 0
0 -0 -2 -1 -3 -1 1 -0 -1 1 -0 -0 -4 -5 -2 4 5 9 3 3 -4 -1 1 -8 -2 -3 -6 -2 -1 -4 -6 3 -1 2 -1 -2 -2 -1 1 -2 -0 -1 -0 -4 -2 -1 0 -1 -2
-1 3 -1 4 6 1 -3 1 -1 -3 2 2 3 -1 0 3 -4 -10 -5 2 -0 -2 -2 -1 3 -2 -4 0 -4 -0 1 -1 -1 -3 1 -6 0 2 -2 -3 0 3 1 -4 -0 -5 -0 2 -4
0 5 -3 13 4 7 4 -3 -5 4 -5 -2 -4 -10 1 3 5 5 -1 -2 1 -2 -3 1 3 4 -0 2 1 -1 0 -1 -1 -2 -2 5 -1 -3 -2 -2 -0 -2 -1 -1 -3 1 0 -4 -4
1 -1 0 -2 3 3 1 1 2 0 2 5 3 4 -0 3 2 0 1 2 -3 1 -0 0 -0 -2 -1 0 -3 -0 -1 -1 -3 2 3 -2 -1 -2 0 0 2 1 -2 3 -2 0 -4 -4 -3
2 -1 -1 1 1 3 2 2 -3 -0 -1 2 1 2 1 0 2 1 3 4 1 1 0 1 0 -1 1 0 -1 2 2 -0 -1 3 1 -1 -1 5 2 2 -0 1 0 1 -3 -1 -4 -2 -1
-1 1 -0 2 -3 -2 2 1 2 -0 -1 1 -0 3 3 3 1 1 1 -1 2 -0 1 2 1 0 -2 -3 -3 2 2 -0 -1 6 2 0 7 3 1 -5 4 -1 2 -3 -2 -5 -4 -1 -3
-2 0 1 0 -0 1 1 0 -1 1 -1 -3 -2 -0 0 1 1 1 2 3 3 0 2 0 1 3 6 2 2 2 5 2 4 -0 1 2 2 -5 1 5 -2 -2 -3 -0 -1 -1 -1 -1 -1
-2 -3 -3 -2 -0 1 2 4 1 3 4 -3 -1 1 -1 0 0 -1 1 1 0 1 0 1 2 1 -2 0 -4 -1 1 -2 -0 -4 -2 -1 1 1 1 -2 3 1 1 -1 -3 -4 -2 -3 -3
5 -5 -3 -1 1 -2 -1 -2 -0 2 -4 2 0 -3 -1 -3 0 2 -0 -0 -3 -1 -1 -1 -4 -4 0 2 -3 -1 2 1 1 1 6 4 1 1 -1 0 -1 -2 -1 -3 -3 -0 -0 0 -2
3 3 0 -1 -1 1 0 1 -1 -1 1 1 3 2 -3 -1 -4 -0 2 2 -1 -1 1 1 -0 2 1 9 10 9 3 3 -1 0 1 1 -1 0 -2 -3 -1 -1 -3 -2 -2 -1 -2 0 -3
-2 3 3 2 0 -1 -0 0 3 3 -0 2 -1 -1 2 -1 -3 2 0 -0 -1 3 2 1 2 -0 6 16 10 2 7 5 0 -2 0 -0 -1 -4 -2 -1 -2 -3 -4 -1 -1 -0 0 -1 -2
-6 1 0 3 3 1 -2 -1 1 -4 -6 -2 -2 1 0 0 -2 -3 -3 -2 -2 -0 0 4 2 5 -3 -11 -3 8 -1 -2 -3 -0 0 3 -1 -2 -1 0 -3 -0 1 -1 -1 -2 1 0 2
-6 -2 2 3 4 5 2 -2 12 0 -7 -4 -4 -0 -2 2 4 3 5 1 -2 -1 -1 3 -4 10 5 3 9 6 1 1 1 -3 2 -0 2 0 -2 -2 2 0 2 2 -1 -2 -0 -1 -2
0 -2 2 -1 -0 2 0 1 6 -2 1 0 3 -2 -1 -2 0 -1 -0 1 0 3 0 3 0 12 18 14 10 -1 -1 1 0 2 7 1 -1 -1 0 0 3 1 0 -0 1 -1 -2 1 3
-0 -1 -1 -2 -5 -3 0 2 8 -1 3 -1 0 3 3 1 1 1 3 6 4 0 1 6 -2 -3 0 6 2 -1 1 -0 1 5 1 3 1 -2 -2 -0 2 2 1 1 3 -1 -1 0 -0
-3 -2 -1 -4 -3 -2 -1 3 5 -2 -1 1 1 -0 1 1 -0 1 3 4 4 3 -1 -1 1 -0 -3 -1 1 2 1 -1 4 4 1 0 1 1 0 1 1 2 0 -1 0 1 -0 1 -0
-6 -4 -1 -4 4 -1 -1 9 -3 3 -2 -0 1 1 1 -0 3 3 1 1 2 2 1 4 -1 -1 1 3 -1 2 4 4 3 5 -2 1 -1 0 2 2 1 2 2 2 1 1 -3 -2 -4
Height
5776 5777 5778 5780 5784 5785 5788 5791 5793 5797 5802 5805 5808 5810 5814 5815 5817 5822 5820 5822 5826 5831 5833 5835 5836 5836 5838 5839 5840 5840 5840 5841 5843 5844 5844 5846 5847 5849 5850 5848 5849 5848 5848 5848 5848 5848 5848 5848 5847
5774 5773 5774 5776 5779 5781 5785 5787 5791 5794 5797 5801 5805 5805 5808 5812 5812 5815 5818 5820 5823 5826 5828 5830 5831 5832 5833 5835 5835 5835 5835 5836 5838 5840 5841 5843 5844 5845 5845 5844 5844 5845 5846 5847 5846 5846 5847 5844 5843
5771 5770 5771 5772 5774 5778 5782 5784 5788 5792 5793 5797 5801 5801 5804 5809 5803 5805 5813 5815 5818 5820 5822 5824 5825 5827 5828 5830 5830 5830 5831 5831 5834 5836 5837 5839 5840 5841 5841 5842 5842 5842 5842 5843 5844 5844 5844 5844 5843
5767 5767 5768 5769 5771 5775 5779 5782 5784 5788 5790 5793 5797 5800 5802 5805 5807 5807 5810 5812 5814 5816 5817 5818 5821 5821 5823 5824 5825 5826 5826 5827 5829 5831 5833 5834 5835 5837 5838 5839 5838 5838 5838 5839 5841 5840 5840 5841 5840
5765 5764 5764 5766 5769 5773 5776 5780 5782 5785 5787 5790 5792 5795 5798 5801 5804 5805 5807 5808 5809 5811 5812 5813 5814 5816 5818 5819 5819 5820 5822 5823 5824 5825 5827 5830 5831 5833 5834 5833 5834 5834 5835 5837 5838 5839 5839 5839 5838
5763 5762 5763 5765 5768 5771 5775 5778 5780 5783 5785 5787 5790 5793 5795 5796 5799 5801 5803 5803 5805 5806 5805 5807 5809 5809 5811 5811 5812 5814 5818 5819 5820 5822 5823 5826 5828 5829 5828 5829 5830 5832 5833 5834 5836 5837 5837 5836 5835
5761 5761 5762 5764 5767 5771 5773 5775 5778 5779 5782 5786 5787 5790 5792 5793 5795 5797 5799 5800 5800 5803 5802 5800 5802 5802 5803 5801 5805 5809 5812 5814 5815 5818 5820 5822 5824 5824 5825 5825 5828 5830 5832 5832 5833 5833 5833 5832 5830
5760 5761 5762 5764 5767 5770 5772 5773 5776 5778 5780 5783 5784 5787 5789 5789 5791 5793 5794 5796 5797 5797 5796 5795 5796 5796 5791 5793 5797 5803 5808 5809 5812 5813 5815 5818 5819 5821 5822 5825 5826 5827 5829 5830 5829 5829 5827 5827 5825
5759 5761 5763 5765 5767 5769 5772 5774 5774 5775 5777 5779 5780 5783 5785 5785 5787 5789 5790 5791 5792 5792 5791 5790 5791 5791 5791 5793 5798 5795 5799 5803 5806 5809 5812 5813 5816 5819 5822 5824 5824 5823 5825 5827 5827 5827 5826 5825 5824
5759 5761 5763 5765 5766 5768 5770 5772 5773 5773 5775 5776 5777 5780 5782 5782 5782 5782 5785 5786 5786 5785 5785 5788 5786 5781 5782 5784 5788 5792 5792 5796 5799 5804 5808 5812 5816 5819 5819 5822 5820 5821 5823 5824 5824 5824 5824 5824 5821
5759 5763 5764 5765 5767 5768 5770 5772 5772 5769 5772 5774 5773 5775 5777 5777 5775 5776 5778 5780 5780 5780 5779 5779 5780 5780 5777 5779 5783 5790 5791 5794 5797 5801 5807 5810 5813 5815 5817 5818 5819 5819 5820 5821 5821 5820 5821 5819 5817
5762 5764 5765 5767 5769 5770 5770 5771 5771 5769 5770 5770 5768 5769 5770 5770 5770 5770 5772 5774 5773 5774 5773 5773 5773 5773 5775 5781 5783 5787 5791 5795 5798 5803 5806 5809 5811 5813 5813 5815 5816 5817 5818 5818 5818 5818 5817 5815 5812
5763 5764 5766 5768 5769 5770 5770 5769 5769 5768 5766 5766 5763 5764 5762 5764 5764 5763 5765 5767 5768 5768 5769 5769 5769 5770 5774 5779 5783 5786 5789 5794 5800 5803 5804 5808 5808 5810 5813 5814 5812 5814 5816 5815 5814 5813 5811 5810 5807
5764 5764 5766 5767 5769 5770 5769 5768 5768 5766 5763 5763 5761 5759 5758 5758 5759 5761 5762 5763 5764 5767 5769 5767 5773 5775 5776 5783 5785 5789 5792 5796 5801 5803 5804 5807 5806 5809 5810 5810 5810 5812 5813 5811 5810 5808 5805 5803 5801
5764 5765 5764 5766 5767 5768 5768 5766 5766 5765 5763 5762 5760 5758 5757 5756 5756 5762 5766 5769 5768 5770 5771 5773 5776 5776 5779 5784 5789 5791 5793 5799 5800 5802 5804 5804 5805 5805 5808 5808 5808 5807 5808 5807 5805 5802 5800 5798 5793
5764 5763 5763 5765 5765 5766 5768 5767 5766 5766 5763 5762 5760 5762 5761 5763 5765 5768 5769 5771 5770 5772 5774 5776 5779 5781 5785 5787 5790 5792 5795 5799 5800 5800 5800 5801 5802 5804 5805 5803 5803 5804 5803 5801 5799 5796 5792 5788 5783
5762 5764 5766 5766 5767 5767 5768 5768 5768 5767 5767 5766 5765 5765 5766 5767 5769 5771 5772 5772 5774 5775 5776 5780 5781 5782 5786 5788 5791 5792 5795 5796 5797 5797 5798 5799 5800 5800 5801 5800 5800 5799 5797 5794 5791 5786 5782 5777 5773
5761 5763 5765 5766 5768 5767 5768 5769 5768 5768 5768 5769 5768 5768 5769 5770 5771 5771 5773 5774 5775 5776 5777 5779 5780 5782 5785 5788 5790 5790 5791 5792 5794 5794 5796 5795 5797 5798 5796 5796 5793 5792 5789 5786 5782 5778 5772 5768 5764
5761 5764 5765 5767 5767 5767 5768 5769 5769 5768 5768 5768 5770 5770 5771 5772 5772 5773 5774 5775 5775 5777 5777 5780 5781 5783 5784 5785 5785 5786 5788 5788 5789 5790 5791 5793 5794 5793 5792 5790 5787 5784 5781 5777 5773 5768 5763 5759 5754
5761 5762 5764 5764 5767 5768 5768 5768 5770 5769 5768 5767 5768 5769 5771 5773 5773 5774 5775 5775 5776 5777 5777 5778 5778 5781 5780 5782 5783 5785 5785 5787 5789 5790 5789 5789 5788 5787 5785 5783 5780 5777 5773 5768 5764 5759 5754 5749 5745
5760 5760 5762 5763 5765 5766 5768 5768 5769 5770 5770 5769 5769 5769 5770 5772 5773 5774 5775 5775 5776 5777 5778 5778 5778 5779 5781 5783 5783 5782 5784 5785 5784 5785 5786 5783 5781 5779 5777 5774 5771 5767 5764 5759 5754 5749 5744 5738 5732
5759 5761 5761 5762 5764 5766 5767 5769 5768 5769 5770 5771 5770 5770 5769 5770 5772 5773 5774 5776 5777 5777 5777 5776 5777 5779 5778 5778 5778 5779 5779 5780 5780 5779 5777 5777 5774 5771 5767 5765 5762 5759 5754 5749 5745 5740 5734 5728 5721
5756 5758 5759 5760 5762 5764 5766 5768 5767 5768 5769 5770 5770 5770 5769 5769 5770 5771 5772 5772 5772 5773 5773 5773 5773 5772 5772 5772 5772 5773 5773 5775 5775 5774 5772 5770 5766 5764 5761 5758 5754 5749 5744 5740 5735 5728 5722 5716 5709
5753 5756 5758 5759 5760 5762 5763 5765 5766 5767 5768 5768 5768 5768 5768 5768 5769 5768 5769 5769 5769 5769 5769 5768 5768 5769 5768 5767 5769 5769 5771 5771 5770 5768 5765 5763 5760 5757 5753 5748 5744 5739 5735 5730 5723 5717 5711 5705 5700
5752 5754 5756 5758 5758 5760 5760 5762 5764 5764 5764 5765 5765 5765 5765 5765 5765 5765 5765 5765 5765 5765 5766 5765 5763 5764 5762 5763 5764 5765 5766 5765 5763 5761 5759 5756 5753 5748 5744 5740 5735 5730 5725 5718 5712 5706 5699 5693 5688
5750 5752 5753 5754 5756 5757 5757 5759 5762 5760 5758 5758 5760 5762 5763 5764 5765 5765 5764 5763 5762 5763 5763 5762 5760 5759 5756 5757 5756 5758 5759 5757 5755 5753 5750 5748 5744 5740 5735 5730 5725 5720 5714 5709 5702 5695 5687 5682 5676
5746 5748 5750 5751 5752 5753 5754 5755 5756 5755 5755 5755 5755 5757 5758 5759 5761 5761 5760 5759 5758 5759 5760 5760 5758 5755 5753 5751 5750 5752 5751 5749 5745 5743 5740 5737 5735 5730 5726 5721 5717 5711 5704 5698 5690 5683 5675 5669 5663
5741 5744 5746 5746 5747 5748 5749 5751 5752 5750 5751 5752 5752 5752 5754 5755 5755 5755 5756 5756 5755 5755 5756 5756 5754 5752 5751 5749 5748 5746 5743 5740 5737 5735 5733 5730 5725 5721 5716 5711 5705 5699 5692 5685 5678 5670 5662 5654 5648
5736 5738 5740 5742 5743 5743 5743 5745 5747 5746 5745 5746 5747 5747 5748 5749 5750 5751 5751 5752 5752 5752 5751 5750 5749 5748 5745 5744 5741 5738 5735 5732 5729 5727 5724 5720 5714 5711 5706 5699 5693 5686 5679 5672 5665 5657 5648 5641 5633
5731 5734 5735 5737 5740 5738 5739 5741 5739 5740 5740 5741 5741 5742 5742 5742 5743 5744 5745 5746 5746 5746 5745 5745 5744 5742 5739 5737 5734 5731 5728 5725 5721 5718 5714 5709 5705 5699 5694 5687 5680 5674 5667 5659 5651 5644 5635 5628 5620